Location: Mizzole
(45.4833°N, 11.0500°E)
Time: 11:51:38
(UTC+00:00)

Cosmos 1953 - Pass Details

Date: 21 October 2019
Orbit: 539 x 559 km, 82.5° (Epoch: 12 November)

Event Time Altitude Azimuth Distance (km) Brightness Sun altitude
Rises 17:04:39 0° 207° (SSW) 2,733 6.4 -8.4°
Reaches altitude 10° 17:06:56 10° 215° (SW) 1,843 5.6 -8.8°
Maximum altitude 17:10:43 37° 284° (WNW) 877 4.0 -9.4°
Drops below altitude 10° 17:14:32 10° 353° (N) 1,854 5.0 -10.1°
Sets 17:16:51 0° 2° (N) 2,752 5.8 -10.5°
